Weather History for Bow Valley, Alberta

Change the Weather History Date:

Wednesday, February 20, 2013

  Actual Average Record
Temperature  
Mean Temperature 22 °F -  
Max Temperature 32 °F - - ()
Min Temperature 12 °F - - ()
Degree Days  
Heating Degree Days 43    
Moisture  
Dew Point 11 °F    
Average Humidity 67    
Maximum Humidity 95    
Minimum Humidity 21    
Precipitation  
Precipitation 0.00 in - - ()
Sea Level Pressure  
Sea Level Pressure 29.87 in    
Wind  
Wind Speed 3 mph ()    
Max Wind Speed 9 mph    
Max Gust Speed -    
T = Trace of Precipitation, MM = Missing Value Source: Averaged Metar Reports

Daily Weather History Graph

Daily Weather History Graph

Search for Another Location

Airport:

Trip Planner

Search our weather history database for the weather conditions in past years. The results will help you decide how hot, cold, wet, or windy it might be!

Date:

Astronomy

Feb. 20, 2013 Rise Set
Actual Time 7:42 AM MST 6:06 PM MST
Civil Twilight 7:08 AM MST 6:39 PM MST
Nautical Twilight 6:30 AM MST 7:18 PM MST
Astronomical Twilight 5:52 AM MST 7:56 PM MST
Moon 1:10 PM MST (2/20) 4:26 AM MST (2/20)
Length of Visible Light 11h 30m
Length of Day
10h 23m
Waxing Gibbous, 76% of the Moon is Illuminated
Feb 20
Waxing Gibbous
Feb 25
Full
Mar 4
Last Quarter
Mar 11
New
Mar 19
First Quarter

Hourly Weather History & Observations

Time (MST) Temp. Windchill Dew Point Humidity Pressure Visibility Wind Dir Wind Speed Gust Speed Precip Events Conditions
12:00 AM 20.5 °F - 18.9 °F 93% 29.89 in - ENE 2.3 mph - N/A   Unknown
1:00 AM 19.9 °F 14.9 °F 18.5 °F 94% 29.89 in - ENE 3.5 mph - N/A   Unknown
2:00 AM 19.6 °F - 18.0 °F 93% 29.88 in - Calm Calm - N/A   Unknown
3:00 AM 18.7 °F - 17.1 °F 93% 29.89 in - Calm Calm - N/A   Unknown
4:00 AM 19.0 °F - 17.8 °F 95% 29.89 in - East 1.2 mph - N/A   Unknown
5:00 AM 16 °F - 14 °F 90% 29.90 in - Calm Calm - -  
5:00 AM 16.2 °F - 14.4 °F 93% 29.90 in - Calm Calm - N/A   Unknown
6:00 AM 14.2 °F - 12.4 °F 93% 29.91 in - Calm Calm - N/A   Unknown
7:00 AM 14.0 °F - 12.4 °F 93% 29.92 in - Calm Calm - N/A   Unknown
8:00 AM 15.6 °F - 14.4 °F 95% 29.92 in - Calm Calm - N/A   Unknown
9:00 AM 16.2 °F - 14.9 °F 95% 29.91 in - East 1.2 mph - N/A   Unknown
10:00 AM 18.1 °F - 16.7 °F 94% 29.90 in - NE 1.2 mph - N/A   Unknown
11:00 AM 21 °F - 17 °F 78% 29.87 in - East 2.3 mph - -  
11:00 AM 20.8 °F - 17.1 °F 85% 29.87 in - East 2.3 mph - N/A   Unknown
12:00 PM 27.7 °F 23.8 °F 14.4 °F 57% 29.84 in - SW 3.5 mph - N/A   Unknown
1:00 PM 30.7 °F 23.3 °F 8.2 °F 39% 29.82 in - WSW 8.1 mph - N/A   Unknown
2:00 PM 30.2 °F 22.6 °F 6.1 °F 36% 29.82 in - WSW 8.1 mph - N/A   Unknown
3:00 PM 31.3 °F 24.7 °F 6.6 °F 35% 29.81 in - WSW 6.9 mph - N/A   Unknown
4:00 PM 30.9 °F 23.5 °F 5.2 °F 34% 29.83 in - WSW 8.1 mph - N/A   Unknown
5:00 PM 29 °F - 4 °F 21% 29.85 in - WSW 5.8 mph - -  
5:00 PM 28.8 °F 22.6 °F 4.5 °F 36% 29.85 in - WSW 5.8 mph - N/A   Unknown
7:00 PM 24.8 °F 19.1 °F 5.2 °F 43% 29.88 in - WSW 4.6 mph - N/A   Unknown
8:00 PM 24.4 °F 18.6 °F 5.2 °F 44% 29.88 in - SW 4.6 mph - N/A   Unknown
9:00 PM 23.4 °F 17.4 °F 5.2 °F 46% 29.88 in - SW 4.6 mph - N/A   Unknown
10:00 PM 22.5 °F 14.1 °F 5.5 °F 48% 29.88 in - WSW 6.9 mph - N/A   Unknown
11:00 PM 20 °F - 6 °F 40% 29.87 in - WSW 9.2 mph - -  
11:00 PM 20.5 °F 10.0 °F 6.1 °F 54% 29.87 in - WSW 9.2 mph - N/A   Unknown